1498424401.18,47053,23.81,74020.8,6.89,4.71,4.37,0,*7D
1498424402.38,47054,23.81,74016.5,6.85,4.67,4.23,0,*74
1498424403.62,47055,23.81,74018.8,6.87,4.71,4.23,0,*70
1498424404.82,47056,23.81,74018.3,6.85,4.79,4.57,0,*7A
1498424406.05,47057,23.81,74018.5,6.85,4.93,4.63,0,*78
1498424407.26,47058,23.81,74016.5,6.85,4.67,4.33,0,*79
1498424408.47,47059,23.81,74014.8,6.85,4.71,4.41,0,*7A
1498424409.73,47060,23.81,74014.8,6.87,4.93,4.67,0,*7A
1498424410.93,47061,23.81,74018.3,6.87,5.15,4.81,0,*7C
1498424412.13,47062,23.81,74018.0,6.85,5.15,4.93,0,*7E
1498424413.34,47063,23.81,74020.3,6.85,5.33,5.01,0,*71
1498424414.57,47064,23.81,74020.0,6.85,5.27,5.01,0,*73
1498424415.8,47065,23.81,74018.3,6.87,5.33,5.01,0,*75
1498424417.0,47066,23.81,74018.3,6.87,5.33,4.89,0,*77
1498424418.21,47067,23.81,74018.5,6.85,5.33,5.05,0,*71
1498424419.41,47068,23.81,74016.0,6.87,5.37,5.11,0,*7D
1498424420.62,47069,23.81,74018.5,6.87,5.37,5.15,0,*78
1498424421.79,47070,23.81,74018.5,6.85,5.49,5.15,0,*7B
1498424422.97,47071,23.81,74022.0,6.85,5.49,5.15,0,*7A
1498424424.17,47072,23.81,74018.5,6.85,5.51,5.15,0,*70
1498424425.35,47073,23.81,74018.5,6.85,5.49,5.23,0,*7D
1498424426.58,47074,23.81,74018.5,6.87,5.59,5.27,0,*7D
1498424427.76,47075,23.81,74020.3,6.85,5.59,5.33,0,*7B
1498424428.96,47076,23.81,74020.5,6.85,5.51,5.23,0,*71
1498424430.16,47077,23.81,74016.8,6.85,5.51,5.11,0,*71
1498424431.34,47078,23.81,74022.0,6.89,5.45,5.07,0,*70
1498424432.58,47079,23.81,74022.3,6.87,5.41,5.01,0,*7D
1498424433.81,47080,23.81,74020.8,6.87,5.41,5.05,0,*7F
1498424434.98,47081,23.81,74022.8,6.85,5.33,4.89,0,*7C
1498424436.24,47082,23.81,74022.5,6.87,5.05,4.67,0,*78
1498424437.47,47083,23.81,74024.0,6.85,4.79,4.31,0,*72
1498424438.67,47084,23.81,74020.8,6.87,4.81,4.33,0,*72
1498424439.9,47085,23.81,74020.3,6.85,4.79,4.31,0,*74
1498424441.1,47086,23.81,74020.3,6.85,4.67,4.19,0,*72
1498424442.3,47087,23.81,74022.8,6.83,4.79,4.15,0,*76
1498424443.53,47088,23.81,74020.8,6.83,4.75,4.31,0,*73
1498424444.73,47089,23.81,74022.8,6.85,4.79,4.23,0,*7B
1498424445.93,47090,23.75,74016.5,6.85,4.81,4.31,0,*77
1498424447.16,47091,23.81,74024.0,6.83,5.01,4.59,0,*77
1498424448.37,47092,23.81,74020.8,6.85,5.23,4.79,0,*70
1498424449.57,47093,23.81,74020.3,6.85,5.33,4.93,0,*74
1498424450.76,47094,23.81,74022.0,6.85,5.27,4.89,0,*7D
1498424451.97,47095,23.75,74018.0,6.85,5.15,4.93,0,*76
1498424453.17,47096,23.81,74020.8,6.85,5.15,4.79,0,*71
1498424454.34,47097,23.81,74020.8,6.85,5.15,4.81,0,*77
1498424455.53,47098,23.81,74020.0,6.85,5.27,4.81,0,*79
1498424456.76,47099,23.81,74020.5,6.87,5.41,4.93,0,*79
1498424457.93,47100,23.81,74026.5,6.85,5.49,4.89,0,*79
1498424459.11,47101,23.81,74022.8,6.85,5.41,4.89,0,*70
1498424460.33,47102,23.81,74022.0,6.85,5.27,4.67,0,*73
1498424461.53,47103,23.81,74022.0,6.85,5.01,4.45,0,*76
1498424462.74,47104,23.81,74024.3,6.85,5.05,4.45,0,*75
1498424463.94,47105,23.81,74020.5,6.85,4.93,4.41,0,*7E
1498424465.15,47106,23.81,74026.0,6.85,4.89,4.31,0,*71
1498424466.35,47107,23.81,74020.0,6.85,4.79,4.19,0,*75
1498424467.55,47108,23.75,74022.5,6.83,4.59,4.07,0,*71
1498424468.75,47109,23.81,74022.0,6.83,4.59,4.19,0,*7F
1498424469.98,47110,23.81,74024.3,6.81,4.79,4.41,0,*7A
1498424471.19,47111,23.81,74022.3,6.83,4.75,4.41,0,*75
1498424472.39,47112,23.81,74020.0,6.83,4.79,4.53,0,*79
1498424473.6,47113,23.81,74022.5,6.83,4.89,4.63,0,*74
1498424474.83,47114,23.81,74020.0,6.83,4.97,4.63,0,*7C
1498424476.07,47115,23.81,74022.0,6.85,5.05,4.67,0,*75
1498424477.27,47116,23.81,74020.8,6.83,5.11,4.75,0,*76
1498424478.51,47117,23.81,74020.0,6.83,4.97,4.79,0,*74
1498424479.74,47118,23.81,74018.8,6.83,5.01,4.79,0,*75
1498424480.97,47119,23.81,74022.3,6.81,5.11,4.79,0,*77
1498424482.17,47120,23.81,74018.0,6.83,5.07,4.79,0,*78
1498424483.38,47121,23.81,74020.3,6.83,4.89,4.79,0,*7E
1498424484.61,47122,23.81,74020.8,6.81,5.01,4.85,0,*7D
1498424485.81,47123,23.81,74020.0,6.83,5.11,4.97,0,*7C
1498424487.02,47124,23.81,74022.0,6.83,5.23,5.01,0,*74
1498424488.23,47125,23.81,74022.5,6.83,5.23,4.97,0,*7B
1498424489.43,47126,23.81,74022.0,6.81,5.33,4.89,0,*74
1498424490.64,47127,23.81,74020.5,6.83,5.23,4.75,0,*75
1498424491.87,47128,23.75,74020.5,6.81,5.01,4.41,0,*7F
1498424493.08,47129,23.81,74024.3,6.83,4.97,4.41,0,*72
1498424494.3,47130,23.81,74024.5,6.81,5.01,4.49,0,*7E
1498424495.53,47131,23.75,74022.3,6.81,5.01,4.53,0,*74
1498424496.76,47132,23.81,74020.0,6.83,5.01,4.63,0,*76
1498424498.0,47133,23.81,74022.8,6.85,5.05,4.71,0,*76
1498424499.2,47134,23.75,74020.0,6.83,5.07,4.67,0,*72
1498424500.43,47135,23.81,74020.8,6.81,5.11,4.67,0,*76
1498424501.65,47136,23.81,74022.5,6.81,5.07,4.67,0,*72
1498424502.86,47137,23.81,74024.0,6.83,5.11,4.63,0,*72
1498424504.06,47138,23.75,74024.3,6.83,5.07,4.63,0,*7A
1498424505.27,47139,23.75,74020.5,6.83,4.89,4.31,0,*7B
1498424506.5,47140,23.81,74022.5,6.83,4.63,4.05,0,*76
1498424507.7,47141,23.81,74024.5,6.83,4.49,3.79,0,*73
1498424508.9,47142,23.81,74024.0,6.83,4.37,3.67,0,*76
1498424510.11,47143,23.81,74024.3,6.83,4.07,3.37,0,*71
1498424511.31,47144,23.81,74024.0,6.83,4.05,3.55,0,*70
1498424512.55,47145,23.75,74020.3,6.83,4.05,3.49,0,*7C
1498424513.76,47146,23.75,74022.5,6.83,3.93,3.33,0,*7A
1498424514.96,47147,23.75,74022.3,6.83,3.93,3.37,0,*7F
1498424516.22,47148,23.81,74022.0,6.81,4.05,3.45,0,*7F
1498424517.43,47149,23.81,74026.8,6.83,3.93,3.49,0,*78
1498424518.63,47150,23.81,74024.3,6.83,3.81,3.49,0,*73
1498424519.83,47151,23.75,74020.8,6.83,3.85,3.67,0,*7A
1498424521.06,47152,23.81,74022.5,6.83,3.97,3.67,0,*7A
1498424522.28,47153,23.81,74024.0,6.81,3.97,3.81,0,*71
1498424523.49,47154,23.81,74020.8,6.83,4.05,3.93,0,*7B
1498424524.68,47155,23.75,74020.0,6.83,4.15,3.93,0,*7B
1498424525.88,47156,23.81,74020.5,6.83,4.07,3.71,0,*77
1498424527.07,47157,23.81,74020.5,6.83,4.37,4.15,0,*70
1498424528.3,47158,23.81,74022.0,6.83,4.59,4.31,0,*71
1498424529.53,47159,23.81,74022.5,6.83,4.59,4.31,0,*70
1498424530.76,47160,23.75,74022.0,6.83,4.75,4.59,0,*7A
1498424531.96,47161,23.75,74022.0,6.83,4.63,4.53,0,*76
1498424533.15,47162,23.81,74024.8,6.83,4.37,4.41,0,*77
1498424534.38,47163,23.81,74022.5,6.81,4.31,4.27,0,*72
1498424535.55,47164,23.81,74026.5,6.85,4.19,4.11,0,*7E
1498424536.76,47165,23.75,74024.0,6.83,4.05,3.81,0,*7A
1498424537.98,47166,23.75,74022.3,6.83,3.97,3.79,0,*72
1498424539.21,47167,23.75,74020.3,6.83,3.79,3.79,0,*73
1498424540.43,47168,23.75,74022.0,6.81,3.49,3.55,0,*73
1498424541.67,47169,23.75,74020.5,6.81,3.33,3.37,0,*7B
1498424542.87,47170,23.75,74016.5,6.83,3.49,3.55,0,*78
1498424544.09,47171,23.75,74018.8,6.81,3.59,3.79,0,*74
1498424545.32,47172,23.75,74022.3,6.81,3.79,3.81,0,*72
1498424546.55,47173,23.81,74022.3,6.81,3.71,3.81,0,*7B
1498424547.77,47174,23.81,74022.5,6.81,3.93,3.97,0,*77
1498424548.98,47175,23.81,74022.0,6.83,4.05,4.07,0,*72
1498424550.18,47176,23.75,74020.3,6.81,4.15,4.27,0,*70
1498424551.38,47177,23.75,74022.3,6.81,4.27,4.41,0,*70
1498424552.58,47178,23.81,74020.0,6.81,4.49,4.49,0,*7F
1498424553.8,47179,23.75,74022.5,6.81,4.59,4.53,0,*74
1498424554.97,47180,23.81,74020.0,6.83,4.49,4.49,0,*7A
1498424556.2,47181,23.75,74020.8,6.81,4.53,4.59,0,*73
1498424557.43,47182,23.75,74020.0,6.83,4.63,4.75,0,*7F
1498424558.66,47183,23.81,74022.8,6.83,4.63,4.67,0,*7D
1498424559.89,47184,23.75,74020.0,6.83,4.67,4.79,0,*71
1498424561.13,47185,23.81,74022.5,6.81,4.53,4.75,0,*79
1498424562.35,47186,23.81,74020.8,6.81,4.49,4.75,0,*71
1498424563.59,47187,23.75,74020.8,6.83,4.59,4.79,0,*7F
1498424564.82,47188,23.75,74022.3,6.83,4.79,4.97,0,*72
1498424566.02,47189,23.81,74022.0,6.83,4.85,4.97,0,*70
1498424567.23,47190,23.75,74020.0,6.83,4.67,4.85,0,*77
1498424568.43,47191,23.75,74018.5,6.83,4.75,4.85,0,*75
1498424569.64,47192,23.81,74022.5,6.83,4.67,4.85,0,*75
1498424570.89,47193,23.75,74020.5,6.81,4.67,5.01,0,*7B
1498424572.15,47194,23.75,74022.8,6.81,4.75,4.97,0,*71
1498424573.38,47195,23.75,74020.0,6.83,4.75,5.01,0,*7C
1498424574.59,47196,23.81,74020.3,6.83,4.79,5.11,0,*72
1498424575.78,47197,23.81,74022.8,6.83,4.85,5.23,0,*71
1498424576.98,47198,23.81,74022.0,6.81,4.89,5.33,0,*71
1498424578.16,47199,23.75,74022.0,6.83,4.89,5.29,0,*79
1498424579.34,47200,23.75,74018.3,6.83,4.89,5.33,0,*71
1498424580.55,47201,23.75,74020.8,6.81,4.85,5.23,0,*7F
1498424581.73,47202,23.81,74024.0,6.83,4.89,5.33,0,*73
1498424582.94,47203,23.75,74016.5,6.83,4.79,5.23,0,*7C
1498424584.12,47204,23.75,74020.5,6.85,4.81,5.33,0,*7B
1498424585.3,47205,23.75,74016.0,6.85,4.81,5.23,0,*7B
1498424586.51,47206,23.75,74022.0,6.85,4.79,5.23,0,*7F
1498424587.72,47207,23.75,74016.8,6.83,4.75,5.19,0,*7D
1498424588.96,47208,23.75,74022.0,6.85,4.71,5.05,0,*7D
1498424590.22,47209,23.75,74020.5,6.81,4.75,5.01,0,*78
1498424591.42,47210,23.75,74016.5,6.83,4.79,5.11,0,*7F
1498424592.64,47211,23.81,74020.8,6.83,4.75,5.19,0,*7A
1498424593.85,47212,23.75,74020.5,6.83,4.79,5.19,0,*75
1498424595.02,47213,23.75,74022.8,6.83,4.85,5.29,0,*74
1498424596.2,47214,23.75,74020.8,6.83,4.89,5.29,0,*7F
1498424597.41,47215,23.81,74026.0,6.85,4.93,5.33,0,*78
1498424598.61,47216,23.81,74020.8,6.85,4.93,5.33,0,*7B
1498424599.79,47217,23.75,74020.5,6.85,4.89,5.33,0,*71
1498424600.97,47218,23.81,74022.0,6.85,4.89,5.33,0,*7E
1498424602.18,47219,23.75,74022.3,6.87,4.89,5.33,0,*7D
1498424603.39,47220,23.75,74018.8,6.87,4.89,5.23,0,*76
1498424604.6,47221,23.75,74018.3,6.85,4.57,4.93,0,*7C
1498424605.86,47222,23.81,74022.8,6.87,4.67,4.93,0,*7E
1498424607.03,47223,23.75,74020.5,6.85,4.41,4.89,0,*72
1498424608.24,47224,23.75,74022.0,6.85,4.31,4.89,0,*72
1498424609.41,47225,23.81,74022.3,6.85,4.23,4.81,0,*78
1498424610.61,47226,23.81,74020.0,6.85,4.31,4.81,0,*78
1498424611.82,47227,23.81,74020.0,6.83,4.19,4.75,0,*7E
1498424613.03,47228,23.75,74016.5,6.83,4.15,4.67,0,*7E
1498424614.24,47229,23.75,74018.8,6.83,4.27,4.75,0,*7D
1498424615.45,47230,23.75,74020.0,6.85,4.31,4.81,0,*7F
1498424616.66,47231,23.75,74020.3,6.85,4.41,5.01,0,*70
1498424617.87,47232,23.75,74014.0,6.85,4.71,5.15,0,*75
1498424619.08,47233,23.75,74014.3,6.83,4.79,5.07,0,*79
1498424620.31,47234,23.75,74016.5,6.83,4.67,4.97,0,*79
1498424621.51,47235,23.81,74018.0,6.81,4.89,5.11,0,*75
1498424622.74,47236,23.75,74014.5,6.85,5.01,5.27,0,*76
1498424623.95,47237,23.75,74018.3,6.83,5.15,5.27,0,*74
1498424625.13,47238,23.75,74016.3,6.83,5.11,5.19,0,*72
1498424626.33,47239,23.75,74018.8,6.85,5.15,5.27,0,*7C
1498424627.51,47240,23.75,74016.8,6.85,5.11,5.15,0,*77
1498424628.69,47241,23.75,74018.5,6.83,5.07,5.11,0,*73
1498424629.88,47242,23.75,74018.3,6.83,5.11,5.19,0,*7F
1498424631.06,47243,23.75,74016.8,6.83,5.07,5.07,0,*76
1498424632.29,47244,23.75,74018.8,6.83,4.97,4.97,0,*71
1498424633.47,47245,23.75,74018.8,6.85,4.89,4.89,0,*76
1498424634.73,47246,23.75,74020.5,6.87,5.01,4.93,0,*7D
1498424635.93,47247,23.75,74018.8,6.85,5.01,4.89,0,*75
1498424637.13,47248,23.81,74020.5,6.85,4.79,4.81,0,*7C
1498424638.37,47249,23.75,74022.0,6.85,4.71,4.71,0,*7A
1498424639.55,47250,23.75,74020.0,6.85,4.57,4.57,0,*72
1498424640.75,47251,23.81,74022.8,6.85,4.31,4.23,0,*70
1498424641.96,47252,23.75,74018.8,6.85,4.23,4.31,0,*73
1498424643.17,47253,23.75,74018.0,6.87,4.33,4.33,0,*73
1498424644.35,47254,23.75,74012.3,6.85,4.33,4.33,0,*76
1498424645.52,47255,23.75,74018.5,6.85,4.19,4.11,0,*7F
1498424646.75,47256,23.75,74018.5,6.83,3.97,4.05,0,*7E
1498424647.93,47257,23.81,74020.8,6.83,3.93,3.81,0,*70
1498424649.14,47258,23.75,74018.0,6.83,3.93,3.97,0,*78
1498424650.37,47259,23.75,74016.0,6.83,4.05,4.05,0,*7D
1498424651.6,47260,23.81,74022.5,6.83,3.97,4.05,0,*7B
1498424652.78,47261,23.75,74020.3,6.83,4.07,4.07,0,*76
1498424653.99,47262,23.75,74020.3,6.81,4.15,4.07,0,*74
1498424655.16,47263,23.75,74022.3,6.83,3.59,3.55,0,*78
1498424656.39,47264,23.75,74018.3,6.83,3.23,3.15,0,*76
1498424657.63,47265,23.75,74018.8,6.83,3.23,3.11,0,*73
1498424658.83,47266,23.75,74016.0,6.83,3.25,3.11,0,*76
1498424660.08,47267,23.75,74014.8,6.81,3.11,3.07,0,*75
1498424661.33,47268,23.75,74016.8,6.81,3.23,3.23,0,*7D
1498424662.56,47269,23.75,74016.5,6.83,3.33,3.33,0,*7E
1498424663.76,47270,23.75,74018.8,6.83,3.45,3.59,0,*7B
1498424664.98,47271,23.75,74016.0,6.81,3.59,3.79,0,*77
1498424666.2,47272,23.75,74016.8,6.81,3.55,3.67,0,*77
1498424667.42,47273,23.75,74016.8,6.83,3.33,3.37,0,*71
1498424668.67,47274,23.75,74018.0,6.81,3.37,3.45,0,*75
1498424669.92,47275,23.75,74014.5,6.81,3.71,3.79,0,*79
1498424671.14,47276,23.75,74018.3,6.81,3.55,3.49,0,*7F
1498424672.39,47277,23.75,74016.3,6.81,3.45,3.49,0,*7F
1498424673.62,47278,23.75,74016.0,6.83,3.79,3.67,0,*71
1498424674.8,47279,23.75,74016.8,6.83,3.25,3.25,0,*7F
1498424676.05,47280,23.75,74016.3,6.81,3.33,3.33,0,*7B
1498424677.28,47281,23.75,74014.0,6.81,3.25,3.33,0,*7D
1498424678.53,47282,23.75,74016.0,6.81,3.37,3.49,0,*70
1498424679.78,47283,23.75,74014.8,6.81,3.71,3.79,0,*70
1498424681.0,47284,23.75,74016.8,6.81,3.85,3.79,0,*7C
1498424682.2,47285,23.75,74016.8,6.81,3.81,3.93,0,*7D
1498424683.42,47286,23.75,74018.5,6.81,3.49,3.59,0,*7C
1498424684.66,47287,23.75,74012.8,6.81,3.49,3.67,0,*70
1498424685.91,47288,23.75,74014.8,6.81,3.71,3.67,0,*74
1498424687.14,47289,23.75,74014.8,6.81,3.81,3.71,0,*7D
1498424688.36,47290,23.75,74018.8,6.81,3.79,3.59,0,*78
1498424689.61,47291,23.75,74018.3,6.81,3.49,3.45,0,*77
1498424690.86,47292,23.75,74016.8,6.81,3.71,3.79,0,*70
1498424692.06,47293,23.75,74016.3,6.83,3.79,3.59,0,*79
1498424693.29,47294,23.75,74014.8,6.81,3.79,3.55,0,*70
1498424694.54,47295,23.75,74014.3,6.81,3.67,3.49,0,*73
1498424695.77,47296,23.75,74018.3,6.81,3.71,3.59,0,*76
1498424696.99,47297,23.75,74016.3,6.81,3.81,3.71,0,*72
1498424698.22,47298,23.75,74008.8,6.81,4.05,3.93,0,*7A
1498424699.47,47299,23.75,74016.8,6.81,3.97,3.79,0,*73
1498424700.69,47300,23.75,74014.8,6.81,3.85,3.37,0,*7B
1498424701.89,47301,23.75,74018.8,6.81,3.25,2.99,0,*75
1498424703.14,47302,23.75,74016.3,6.81,3.15,3.07,0,*73
1498424704.39,47303,23.75,74012.3,6.81,3.33,3.23,0,*70
1498424705.63,47304,23.75,74014.0,6.81,3.37,3.37,0,*76
1498424706.85,47305,23.75,74012.5,6.81,3.49,3.55,0,*7A
1498424708.08,47306,23.75,74014.0,6.81,3.67,3.59,0,*79
1498424709.31,47307,23.75,74016.3,6.81,3.25,3.15,0,*76
1498424710.53,47308,23.75,74012.8,6.81,3.07,2.99,0,*7C
1498424711.79,47309,23.75,74010.8,6.81,3.07,3.23,0,*7D
1498424713.02,47310,23.75,74010.8,6.81,3.79,3.93,0,*77
1498424714.26,47311,23.75,74014.3,6.81,3.49,3.45,0,*7E
1498424715.52,47312,23.75,74008.5,6.81,3.45,3.45,0,*71
1498424716.77,47313,23.75,74010.3,6.81,3.45,3.49,0,*7C
1498424718.0,47314,23.75,74008.8,6.83,3.71,3.79,0,*7D
1498424719.22,47315,23.75,74014.8,6.81,3.59,3.67,0,*7B
1498424720.42,47316,23.75,74012.3,6.81,3.85,3.93,0,*72
1498424721.65,47317,23.75,74018.0,6.81,4.07,4.05,0,*76
1498424722.89,47318,23.75,74012.5,6.81,3.49,3.37,0,*72
1498424724.09,47319,23.75,74014.0,6.81,3.25,3.25,0,*7A
1498424725.34,47320,23.75,74012.5,6.81,3.49,3.45,0,*7C
1498424726.59,47321,23.75,74012.5,6.81,3.45,3.49,0,*7D
1498424727.81,47322,23.75,74010.8,6.79,3.41,3.23,0,*71
1498424729.04,47323,23.75,74012.3,6.79,3.07,3.23,0,*72
1498424730.26,47324,23.75,74014.0,6.79,3.67,3.79,0,*7C
1498424731.46,47325,23.75,74010.0,6.79,3.41,3.29,0,*7C
1498424732.68,47326,23.75,74012.8,6.79,3.33,3.11,0,*71
1498424733.92,47327,23.75,74012.8,6.79,3.41,3.41,0,*70
1498424735.12,47328,23.75,74010.5,6.79,3.63,3.41,0,*7F
1498424736.37,47329,23.75,74014.0,6.81,3.37,3.33,0,*7D
1498424737.59,47330,23.75,74014.0,6.81,3.71,3.59,0,*7B
1498424738.76,47331,23.75,74012.3,6.79,3.63,3.55,0,*72
1498424739.95,47332,23.75,74014.8,6.79,3.79,3.55,0,*7A
1498424741.2,47333,23.75,74016.3,6.81,3.49,3.49,0,*72
1498424742.43,47334,23.75,74012.8,6.81,3.71,3.81,0,*7A
1498424743.68,47335,23.75,74018.3,6.81,4.05,4.05,0,*74
1498424744.91,47336,23.75,74014.0,6.81,3.71,3.59,0,*7D
1498424746.13,47337,23.75,74012.3,6.79,3.53,3.41,0,*72
1498424747.38,47338,23.75,74012.5,6.81,3.37,3.49,0,*70
1498424748.58,47339,23.75,74016.0,6.79,3.75,3.63,0,*78
1498424749.78,47340,23.75,74016.3,6.79,3.81,3.75,0,*7A
1498424751.01,47341,23.75,74018.3,6.79,3.75,3.75,0,*70
1498424752.23,47342,23.75,74014.5,6.81,3.49,3.25,0,*7E
1498424753.43,47343,23.75,74018.3,6.81,2.99,2.95,0,*79
1498424754.63,47344,23.75,74014.0,6.79,3.11,2.95,0,*78
1498424755.86,47345,23.75,74014.8,6.79,3.07,3.11,0,*73
1498424757.08,47346,23.75,74012.5,6.79,3.19,3.11,0,*7F
1498424758.31,47347,23.75,74014.5,6.79,3.41,3.41,0,*76
1498424759.53,47348,23.75,74014.3,6.79,3.19,3.07,0,*76
1498424760.75,47349,23.75,74016.5,6.79,3.07,3.23,0,*7E
1498424761.95,47350,23.75,74018.5,6.79,3.55,3.45,0,*71
1498424763.17,47351,23.75,74016.3,6.79,3.07,3.19,0,*7E
1498424764.39,47352,23.75,74014.8,6.79,3.03,2.85,0,*7D
1498424765.59,47353,23.75,74018.8,6.79,2.65,2.69,0,*7F
1498424766.8,47354,23.75,74012.8,6.75,2.91,3.07,0,*76
1498424768.01,47355,23.75,74012.3,6.75,3.15,3.25,0,*7A
1498424769.22,47356,23.75,74014.0,6.75,3.15,2.99,0,*7F
1498424770.45,47357,23.75,74014.0,6.75,2.59,2.55,0,*77
1498424771.68,47358,23.75,74010.5,6.75,2.59,2.77,0,*78
1498424772.88,47359,23.75,74010.5,6.75,2.99,3.03,0,*77
1498424774.12,47360,23.75,74010.0,6.75,2.81,2.77,0,*76
1498424775.35,47361,23.75,74014.3,6.73,2.91,2.89,0,*71
1498424776.58,47362,23.75,74012.0,6.73,3.15,3.25,0,*78
1498424777.81,47363,23.75,74014.0,6.73,3.25,3.53,0,*7B
1498424779.03,47364,23.75,74008.8,6.73,3.63,3.97,0,*76
1498424780.26,47365,23.75,74014.5,6.73,4.01,4.07,0,*7A
1498424781.48,47366,23.75,74012.5,6.73,4.01,4.07,0,*79
1498424782.73,47367,23.75,74012.5,6.73,4.01,4.01,0,*7E
1498424783.95,47368,23.75,74012.3,6.75,3.53,3.53,0,*77
1498424785.12,47369,23.75,74012.3,6.79,3.55,3.59,0,*76
1498424786.32,47370,23.75,74012.8,6.75,3.59,3.71,0,*74
1498424787.53,47371,23.75,74012.0,6.75,3.89,3.97,0,*70
1498424788.75,47372,23.75,74014.0,6.75,3.97,4.01,0,*74
1498424789.93,47373,23.75,74014.8,6.75,3.89,3.85,0,*71
1498424791.13,47374,23.75,74012.3,6.75,3.49,3.59,0,*7B
1498424792.32,47375,23.75,74014.5,6.79,3.53,3.55,0,*71
1498424793.51,47376,23.75,74014.5,6.75,3.53,3.63,0,*7B
1498424794.73,47377,23.75,74018.3,6.79,3.53,3.53,0,*75
1498424795.93,47378,23.75,74018.8,6.75,3.41,3.59,0,*7F
1498424797.16,47379,23.75,74016.0,6.79,3.41,3.53,0,*78
1498424798.35,47380,23.75,74016.8,6.79,3.19,3.29,0,*7E
1498424799.58,47381,23.75,74012.0,6.75,2.89,3.15,0,*74
1498424800.82,47382,23.75,74012.3,6.75,3.15,3.37,0,*73
1498424802.03,47383,23.75,74014.3,6.75,3.15,3.29,0,*7D
1498424803.26,47384,23.75,74012.0,6.75,2.81,3.03,0,*7E
1498424804.49,47385,23.75,74012.5,6.75,2.89,3.07,0,*73
1498424805.72,47386,23.75,74012.3,6.75,2.89,3.15,0,*73
1498424806.95,47387,23.75,74014.0,6.75,2.81,3.07,0,*79
1498424808.17,47388,23.75,74014.5,6.73,2.99,3.37,0,*7A
1498424809.4,47389,23.75,74012.5,6.73,3.29,3.49,0,*78
1498424810.66,47390,23.75,74012.8,6.73,3.07,3.37,0,*75
1498424811.86,47391,23.75,74014.3,6.71,3.23,3.55,0,*74
1498424813.12,47392,23.75,74014.0,6.73,3.37,3.71,0,*76
1498424814.32,47393,23.75,74012.8,6.71,2.99,3.49,0,*7B
1498424815.52,47394,23.75,74010.5,6.73,3.25,3.59,0,*79
1498424816.76,47395,23.75,74010.5,6.71,3.15,3.49,0,*78
1498424817.97,47396,23.75,74014.8,6.71,2.99,3.33,0,*73
1498424819.17,47397,23.75,74012.5,6.71,2.99,3.49,0,*7F
1498424820.43,47398,23.75,74012.0,6.73,3.03,3.49,0,*70
1498424821.66,47399,23.75,74012.5,6.73,3.29,3.75,0,*76
1498424822.89,47400,23.75,74012.8,6.73,3.03,3.63,0,*7E
1498424824.09,47401,23.75,74012.3,6.71,3.11,3.59,0,*77
1498424825.27,47402,23.75,74012.5,6.71,2.99,3.55,0,*79
1498424826.47,47403,23.75,74014.3,6.71,3.25,3.97,0,*70
1498424827.65,47404,23.75,74012.8,6.71,3.55,4.07,0,*7E
1498424828.85,47405,23.75,74012.3,6.73,3.29,3.89,0,*77
1498424830.08,47406,23.75,74010.5,6.71,3.37,4.05,0,*7A
1498424831.29,47407,23.75,74012.3,6.71,3.33,3.93,0,*77
1498424832.49,47408,23.75,74012.0,6.71,3.37,3.93,0,*7C
1498424833.69,47409,23.75,74010.0,6.71,3.49,4.19,0,*71
1498424834.89,47410,23.75,74008.8,6.69,3.81,4.37,0,*78
1498424836.08,47411,23.75,74008.3,6.71,3.93,4.53,0,*71
1498424837.29,47412,23.75,74006.8,6.71,3.93,4.63,0,*71
1498424838.5,47413,23.75,74010.5,6.71,4.27,4.79,0,*73
1498424839.67,47414,23.75,74008.8,6.71,4.53,4.89,0,*78
1498424840.88,47415,23.75,74010.3,6.71,4.41,4.75,0,*79
1498424842.08,47416,23.75,74010.5,6.73,4.33,4.81,0,*76
1498424843.26,47417,23.75,74008.0,6.71,4.41,4.89,0,*78
1498424844.47,47418,23.75,74010.0,6.71,4.63,5.07,0,*70
1498424845.68,47419,23.75,74010.5,6.71,4.79,5.19,0,*75
1498424846.92,47420,23.75,74008.8,6.73,4.93,5.19,0,*79
1498424848.16,47421,23.75,74010.3,6.73,4.93,5.23,0,*71
1498424849.38,47422,23.75,74010.3,6.73,4.93,5.29,0,*78
1498424850.62,47423,23.75,74012.0,6.73,4.93,5.19,0,*7A
1498424851.8,47424,23.75,74010.0,6.71,4.85,5.19,0,*78
1498424853.01,47425,23.75,74008.8,6.71,4.79,5.19,0,*7A
1498424854.22,47426,23.75,74012.8,6.73,4.89,5.15,0,*78
1498424855.45,47427,23.75,74014.0,6.73,4.81,5.05,0,*70
1498424856.71,47428,23.75,74010.3,6.73,4.71,4.97,0,*7A
1498424857.95,47429,23.75,74008.3,6.71,4.67,5.01,0,*70
1498424859.2,47430,23.75,74010.5,6.73,4.67,5.05,0,*7E
1498424860.46,47431,23.75,74008.3,6.73,4.67,5.01,0,*7B
1498424861.72,47432,23.75,74008.3,6.73,4.59,4.93,0,*7F
1498424862.98,47433,23.75,74008.0,6.73,4.71,5.05,0,*7A
1498424864.22,47434,23.75,74006.8,6.71,4.67,5.01,0,*7C
1498424865.42,47435,23.75,74008.8,6.73,4.81,5.15,0,*72
1498424866.64,47436,23.75,74008.0,6.75,5.01,5.23,0,*7B
1498424867.84,47437,23.75,74006.8,6.75,4.81,4.93,0,*79
1498424869.07,47438,23.75,74008.3,6.73,4.79,4.81,0,*74
1498424870.27,47439,23.75,74008.8,6.75,4.79,4.89,0,*7B
1498424871.47,47440,23.75,74010.0,6.75,4.57,4.79,0,*76
1498424872.71,47441,23.75,74010.3,6.73,4.53,4.71,0,*7D
1498424873.95,47442,23.75,74008.0,6.73,4.53,4.71,0,*7E
1498424875.18,47443,23.75,74012.5,6.73,4.53,4.71,0,*7F
1498424876.41,47444,23.75,74008.3,6.73,4.53,4.67,0,*7F
1498424877.64,47445,23.75,74008.0,6.73,4.41,4.67,0,*7D
1498424878.87,47446,23.75,74010.5,6.73,4.53,4.79,0,*72
1498424880.1,47447,23.75,74010.0,6.73,4.57,4.79,0,*77
1498424881.33,47448,23.75,74012.0,6.71,4.63,4.79,0,*7D
1498424882.56,47449,23.75,74010.3,6.73,4.57,4.79,0,*79
1498424883.77,47450,23.75,74010.8,6.71,4.49,4.71,0,*74
1498424885.0,47451,23.75,74008.0,6.73,4.45,4.71,0,*7B
1498424886.21,47452,23.75,74010.3,6.75,4.41,4.71,0,*7A
1498424887.41,47453,23.75,74010.3,6.73,4.53,4.89,0,*79
1498424888.65,47454,23.75,74010.0,6.71,4.67,5.01,0,*7A
1498424889.86,47455,23.75,74008.5,6.75,4.81,5.01,0,*77
1498424891.06,47456,23.75,74008.8,6.75,4.71,4.89,0,*7A
1498424892.27,47457,23.75,74010.8,6.79,4.71,4.81,0,*7F
1498424893.5,47458,23.75,74012.3,6.75,4.67,4.79,0,*7C
1498424894.73,47459,23.75,74010.3,6.75,4.59,4.79,0,*70
1498424895.94,47460,23.75,74008.3,6.71,4.57,4.75,0,*7C
1498424897.19,47461,23.75,74012.5,6.73,4.67,4.79,0,*70
1498424898.39,47462,23.75,74014.5,6.75,4.67,4.81,0,*72
1498424899.6,47463,23.75,74012.8,6.75,4.71,4.89,0,*7C
1498424900.81,47464,23.75,74012.3,6.75,4.71,4.81,0,*73
1498424902.02,47465,23.75,74010.3,6.75,4.53,4.59,0,*77
1498424903.19,47466,23.75,74012.3,6.79,4.23,4.37,0,*77
1498424904.37,47467,23.75,74010.5,6.75,4.19,4.45,0,*76
1498424905.58,47468,23.75,74008.0,6.73,4.23,4.41,0,*72
1498424906.76,47469,23.75,74008.5,6.75,4.23,4.53,0,*76
1498424907.97,47470,23.75,74012.5,6.75,4.31,4.45,0,*7A
1498424909.18,47471,23.75,74012.0,6.75,4.31,4.33,0,*7A
1498424910.4,47472,23.75,74010.5,6.75,4.01,4.01,0,*7B
1498424911.58,47473,23.75,74012.5,6.75,3.85,3.89,0,*76
1498424912.79,47474,23.75,74008.5,6.75,3.71,3.85,0,*76
1498424914.02,47475,23.75,74008.8,6.75,3.75,3.97,0,*70
1498424915.25,47476,23.75,74012.3,6.73,3.63,3.75,0,*7E
1498424916.49,47477,23.75,74008.5,6.73,3.49,3.53,0,*73
1498424917.74,47478,23.75,74010.3,6.73,3.37,3.49,0,*7E
1498424918.95,47479,23.75,74010.5,6.75,3.29,3.49,0,*76
1498424920.16,47480,23.75,74012.0,6.75,3.41,3.59,0,*7F
1498424921.39,47481,23.75,74014.0,6.75,3.41,3.71,0,*74
1498424922.59,47482,23.75,74014.5,6.75,3.41,3.85,0,*7C
1498424923.79,47483,23.75,74012.3,6.79,3.41,3.63,0,*79
1498424925.01,47484,23.75,74008.3,6.75,3.19,3.53,0,*7C
1498424926.26,47485,23.75,74014.5,6.75,3.15,3.41,0,*72
1498424927.49,47486,23.75,74012.5,6.75,3.19,3.41,0,*7D
1498424928.7,47487,23.75,74014.8,6.75,3.15,3.29,0,*7E
1498424929.95,47488,23.75,74012.3,6.73,3.19,3.37,0,*74
1498424931.18,47489,23.75,74008.3,6.73,3.29,3.49,0,*7F